Regional Weather Roundup
Issued by NWS Cleveland, OH

Home | Current Version | Previous Version | Graphics & Text | Print | Product List | Glossary On
Versions: 1 2 3 4 5 6 7 8 9 10 11 12 13 14 15 16 17 18 19 20 21 22 23 24 25 26 27 28 29 30 31 32 33 34 35 36 37 38 39 40 41 42 43 44 45 46 47 48 49 50
000
ASUS41 KCLE 220810
RWRCLE
OHIO REGIONAL WEATHER ROUNDUP
NATIONAL WEATHER SERVICE CLEVELAND, OH
400 AM EDT SAT JUL 22 2017

NOTE: "FAIR" INDICATES FEW OR NO CLOUDS BELOW 12,000 FEET WITH NO
SIGNIFICANT WEATHER AND/OR OBSTRUCTIONS TO VISIBILITY.

OHZ001>008-015>018-024>027-034-035-043-044-220900-
   NORTHWEST OHIO

CITY           SKY/WX    TMP DP  RH WIND       PRES   REMARKS
DEFIANCE       LGT RAIN N/A N/A N/A S5        29.91R
FINDLAY        CLOUDY    75  70  84 E3        29.89F
TOLEDO EXPRESS LGT RAIN  73  73 100 SW5       29.88F
TOLEDO EXEC    CLOUDY    75  72  90 CALM      29.88F
LIMA           LGT RAIN  73  71  93 CALM      29.91R
$$

OHZ009>014-019>023-028>033-038-089-220900-
   NORTHEAST OHIO

CITY           SKY/WX    TMP DP  RH WIND       PRES   REMARKS
CLE-HOPKINS    CLOUDY    77  68  73 SE7       29.92F
CLE-LAKEFRONT  CLOUDY    77  67  71 SE6       29.89F
CUY CO. ARPT   NOT AVBL
LORAIN-ELYRIA  CLOUDY    72  65  78 S3        29.91F
ASHTABULA      PTCLDY    66  65  96 CALM      29.95F
AKRON-CANTON   CLOUDY    76  71  85 SE7       29.93F
WOOSTER        CLOUDY    69  68  96 CALM      29.93F
MANSFIELD      PTCLDY    73  72  96 CALM      29.93F
YOUNGSTOWN     CLOUDY    67  64  90 CALM      29.95S
$$

OHZ042-051>053-060>062-070>072-077>081-220900-
  SOUTHWEST OHIO

CITY           SKY/WX    TMP DP  RH WIND       PRES   REMARKS
CINC-COVINGTON MOCLDY    77  75  93 S7        29.91F
CINC-LUNKEN    CLOUDY    73  73 100 CALM      29.91F
HAMILTON       CLOUDY    76  73  91 SE3       29.90F
DAYTON         MOCLDY    74  71  91 S12       29.90F
WRIGHT-PAT AFB MOCLDY    74  74 100 SE5       29.90F
DAYTON GENERAL PTCLDY    74  72  93 S7        29.90F
WILMINGTON     PTCLDY    73  73 100 S5        29.92F
$$

OHZ036-037-039>041-045>050-054>059-063>069-073>076-082>088-220900-
  CENTRAL AND SOUTHEAST OHIO

CITY           SKY/WX    TMP DP  RH WIND       PRES   REMARKS
COLUMBUS       MOCLDY    74  73  97 S3        29.92S
OSU AIRPORT    CLOUDY    74  73  97 S6        29.92F
BOLTON FIELD   MOCLDY    72  72 100 S3        29.92F FOG
RICKENBACK AFB MOCLDY    71  71 100 CALM      29.92S
NEWARK         CLOUDY    70  69  97 CALM      29.92S FOG
MARION         CLOUDY    73  70  90 SE3       29.92F FOG
LANCASTER      CLOUDY    71  71 100 SE5       29.93F
ZANESVILLE     FOG       72  70  93 CALM      29.94F VSB 3/4
NEW PHILLY     NOT AVBL
$$



USA.gov is the U.S. government's official web portal to all federal, state and local government web resources and services.